EDT,Max TemperatureF,Mean TemperatureF,Min TemperatureF,Max Dew PointF,MeanDew PointF,Min DewpointF,Max Humidity, Mean Humidity, Min Humidity, Max Sea Level PressureIn, Mean Sea Level PressureIn, Min Sea Level PressureIn, Max VisibilityMiles, Mean VisibilityMiles, Min VisibilityMiles, Max Wind SpeedMPH, Mean Wind SpeedMPH, Max Gust SpeedMPH,PrecipitationIn, CloudCover, Events, WindDirDegrees
2012-9-1,87,76,64,72,69,64,100,83,55,30.26,30.20,30.12,10,9,5,8,1,,0.00,1,,235
2012-9-2,86,77,68,72,70,68,100,90,58,30.17,30.08,29.99,10,8,0,12,1,22,1.25,5,,246
2012-9-3,78,74,69,72,70,70,100,94,74,30.06,30.01,29.96,10,8,3,9,1,,0.28,7,,265
2012-9-4,78,74,69,72,71,70,100,93,78,30.00,29.98,29.96,10,8,2,4,0,,0.24,8,,275
2012-9-5,82,76,69,72,70,70,100,89,66,30.02,29.98,29.93,10,8,2,9,1,,0.08,6,,243
2012-9-6,87,76,64,72,68,63,100,81,45,30.04,30.00,29.96,10,8,3,8,1,,0.00,4,,75
2012-9-7,87,74,60,70,65,61,100,82,46,30.06,30.00,29.90,10,7,0,7,1,,0.00,3,,253
2012-9-8,78,68,57,70,65,55,100,87,61,29.97,29.89,29.84,10,8,3,9,1,17,0.06,5,,313
2012-9-9,77,64,50,55,52,46,100,76,36,30.11,30.01,29.94,10,10,10,10,2,17,0.00,1,,14
2012-9-10,78,64,50,63,54,48,100,81,39,30.21,30.15,30.10,10,8,0,8,1,,0.00,3,,249
2012-9-11,78,64,51,63,56,52,100,80,44,30.33,30.27,30.21,10,9,7,7,1,,0.00,4,,228
2012-9-12,78,68,57,63,59,55,100,82,50,30.38,30.32,30.27,10,9,4,7,1,,0.00,5,,216
2012-9-13,78,66,53,61,56,52,100,78,44,30.38,30.33,30.26,10,9,4,10,1,,0.00,2,,207
2012-9-14,77,64,51,64,57,52,100,82,47,30.33,30.28,30.24,10,10,7,5,0,,0.00,3,,321
2012-9-15,82,66,51,64,56,52,100,78,35,30.28,30.21,30.14,10,8,0,6,0,,0.00,2,,208
2012-9-16,80,70,59,64,61,59,100,82,51,30.18,30.13,30.08,10,9,4,8,1,,0.00,2,,217
2012-9-17,78,70,62,68,64,61,100,85,57,30.13,30.00,29.83,10,8,3,13,1,24,0.58,7,,203
2012-9-18,71,66,60,68,64,52,100,89,69,30.00,29.82,29.74,10,8,2,13,4,25,1.67,7,,300
2012-9-19,75,60,46,59,54,46,100,77,47,30.14,30.07,29.99,10,10,4,9,2,,0.00,1,,267
2012-9-20,78,64,51,64,57,52,100,82,44,30.18,30.13,30.07,10,8,0,8,1,,0.00,4,,214
2012-9-21,80,66,53,66,58,54,100,80,45,30.16,30.10,30.02,10,8,4,12,1,16,0.00,2,,227
2012-9-22,,,,,,,,,,,,,,,,,,,,,,
2012-9-23,,,,,,,,,,,,,,,,,,,,,,
2012-9-24,,,,,,,,,,,,,,,,,,,,,,
2012-9-25,78,60,41,63,50,41,100,77,34,30.27,30.22,30.18,10,10,5,6,1,,0.00,0,,282
2012-9-26,80,64,48,61,54,48,100,80,37,30.27,30.23,30.18,10,8,0,8,1,,0.00,1,,240
2012-9-27,82,65,48,64,57,48,100,82,45,30.28,30.23,30.16,10,8,0,9,1,,0.00,2,,240
2012-9-28,82,68,53,64,59,54,100,83,48,30.21,30.14,30.06,10,8,3,9,1,,0.00,1,,233
2012-9-29,77,67,55,64,62,55,100,91,61,30.09,30.02,29.93,10,7,1,9,1,,0.13,5,,233
2012-9-30,75,63,51,64,57,52,100,87,50,29.97,29.92,29.85,10,6,0,4,0,,0.00,4,,275